AQI (43)

Current Conditions for Foresthill, CA. Dusk, Clear skies, Dry   
Visibility: 10 miles
Space WX Alerts: WARNING:  Geomagnetic K-index of 4 expected ( Latest Alert ) - Issue Time: 2019 Nov 11 0959 UTC

  Summary / Temperature 

Current Temperature
65.8°F
18.8°C
(24/hr Ago)
66.5°F
(Apparent temp)
63.4°F
Comfortable
Wind Chill Graphs
65.9°F 

65.8°F/ 18.8°C
 --- Virtual Temp: 67.6°F ---

 Temp Rate:

 24/hr Difference:

 Avg Running Temp:

 Todays High:

 Todays Low:

 Y-days High:

 Y-days Low:

 Todays WChill:

 Y-days WChill:

 Evapotranspiration:

-2.8°F/hr 

-0.7°F

69.6°F

74.6°F 12:49pm

55.9°F 5:32am

71.6°F 12:41pm

55.6°F 4:31am

51.6°F 6:35am

55.0°F 11:41pm

0.083 in

115' Above Ground

 Temperature:

 6'AGL VRS 115'AGL:

 Avg Running Temp:

 Humidity:

 Todays High:

 Todays Low:

 Y-days High:

 Y-days Low:

71.0°F 

+5.2°F

71.7°F

28% 

75.0°F 11:00am

60.0°F 4:07am

72.0°F 3:15pm

60.0°F 4:46am

Temp & Humidity Graphs

  Wind 

Wind Speed

 Calm

Gusting to

 None

Calm

105°  

Calm

 Avg speed:

 Wind Run:

 Peak Gust:

Calm 

22.0 miles

  20.0 mph 2:00am

  Almanac  

Moon age: 15 days,4 hours,56 minutes,100%

Full moon
100%
Illuminated
15 days in cycle

 Moonrise:

 Moonset:

 Sunrise:

 Sunset:

 Solar Noon:

5:21pm

6:39am

6:43am

4:52pm

11:48am

2min 3s less daylight tomorrow 

  Solar Radiation 

(Current Solar)
  9 W/m2
(Todays High)
 575 W/m2@10:14am
Feels like: 65.1°F in the sun

Rain

 Rain Today:

 Rain Rate (/hr):

 Rain last hour:

 Rain Yesterday:

 This Month:

 Season Total:

25 Days Since Last Rain Day

0.00 in

0.000 in

0.00 in

0.00 in

0.00 in

2.30 in

Updated Time

Updated: 11/12/19  4:43pm

(Updated  sec ago)

Humidity & Barometer

 Humidity:

 Wetbulb:

 Dew Point:

 Barometer:

37% 

53.5°F 

38.8°F 

30.047 inHg 

 Baro Trend:  Steady 
Northern Calif
Preparedness
Fire 
Level 

    UV Index  

(Current UV)
0.0  None
(Todays High) @ 11:54am
2.9   Low

National Weather Service Forecast

This
Afternoon
This Afternoon: Mostly Sunny
Mostly Sunny
Tonight

Tonight: Partly Cloudy
Partly Cloudy
Wednesday

Wednesday: Mostly Sunny
Mostly Sunny
Wednesday
Night
Wednesday Night: Mostly Cloudy
Mostly Cloudy
Thursday

Thursday: Partly Sunny
Partly Sunny
Thursday
Night
Thursday Night: Mostly Cloudy
Mostly Cloudy
Hi 71 °F ↓ Lo 53 °F Hi 70 °F ↓ Lo 53 °F Hi 63 °F Lo 47 °F

Foresthill Probe 2 Stats  
Foresthill Probe 2: is located on Thomas Street
at 3000 feet. The main Foresthill Weather site
is located on Melody ln at the 2860 foot elevation

Calm
64.2°F
17.9°C
Temp Rate:
-2.1°F
Calm
Gusting to
None
(Humidity)
37%
Calm
28°  
Updated: 12/11/19 - 16:44:42
 Todays High: 71.0°F 12:41
 Todays Low: 54.2°F 05:53
 Rain Today: 0.00 in
 Season Total: 2.29 in

Foresthill Wx: Monthly,Yearly, Highs and Lows 

Foresthill  
This Weather Data is coming from the main Foresthill
Weather site located on Melody ln at the 2860 foot
elevation
Not Foresthill Probe 2
Weather Data
Month
  High
Month
  Low
Year
High
Year
Low
Temp 78.4°F
11/8/19
46.7°F
11/1/19
92.2°F
8/16/19
24.5°F
2/18/19
Humidity 53%
11/11/19
14%
11/8/19
100%
1/9/19
10%
10/24/19
Heat Index 76.7°F
11/8/19
46.3°F
11/1/19
90.8°F
7/27/19
30.1°F
2/22/19
Wind Chill 78.4°F
11/8/19
43.0°F
11/1/19
92.2°F
8/16/19
11.5°F
2/11/19
Wind Gust 20 mph
11/12/19
0 mph
11/1/19
51 mph
10/27/19
0 mph
1/1/19
Barometer 30.24 in
11/8/19
29.97 in
11/6/19
30.54 in
1/23/19
29.37 in
2/14/19
ET 0.11 in
11/8/19
0.00 in
11/1/19
0.27 in
6/9/19
0.00 in
1/1/19
Dew Point 44.6°F
11/11/19
20.6°F
11/1/19
66.8°F
6/17/19
5.2°F
10/30/19
Visible Satellite Pacific Satellite US Radar Satellite Imagery Sacramento,CA.  (click to enlarge)
NWS Weather Forecast - Summary
Updated: Tuesday, November 12, 2019 - 2:29pm PST
Current Interstate Highway Conditions for I-80 & US-50

[I 80: IN THE SAN FRANCISCO BAY AREA - SOLANO CO]
there is a dense fog advisory in effect at the san francisco-oakland bay bridge /in san francisco/ (san francisco,alameda co) - motorists are advised to drive with caution

[I 80: IN THE NORTHERN CALIFORNIA AREA & SIERRA NEVADA]
no traffic restrictions are reported for this area.

[US 50: IN THE SACRAMENTO VALLEY & THE LAKE TAHOE BASIN]
  1-way controlled traffic at various locations from 8. 8 mi west of the jct of sr 89 /at mt ralston/ to 7 mi west of the jct of sr 89 /at alpine ave/ (EL DORADO CO) from 7:00am to 4:00pm tuesday thru wednesday thru 11/13/19 - due to maintenance
NWS Weather Forecast: This Afternoon and Tonight (Updated: Tue, 12-Nov-2019 2:27pm PST)
This
Afternoon
This Afternoon: Mostly Sunny
Mostly Sunny

Hi 71 °F ↓
NWS forecast: Mostly sunny. High near 71, with temperatures falling to around 62 in the afternoon. Southwest wind around 1 mph.
Tonight

Tonight: Partly Cloudy
Partly Cloudy

Lo 53 °F
NWS forecast: Partly cloudy, with a low around 53. East wind 1 to 6 mph.
YR.NO 10 Day Weather forecast
Last update: 11/12/2019 @ 05:11
Next update: 11/12/2019 @ 11:23
Provided by: 22
      Temperature Precipitation Pressure Wind  
Today
11/12/2019
15:00 18:00 68°F   30.04 inHg Light air from west 2 mph
  18:00 00:00 61°F   30.03 inHg Light air from east-northeast 2 mph
    (Click to enlarge)
meteogram

    Forecast for next 9 days

      Temperature Precip Pressure Wind  
Wednesday
11/13/2019
00:00 06:00 46°F   30.02 inHg Light breeze from east 5 mph
  06:00 12:00 45°F   30.00 inHg Light breeze from east-northeast 6 mph
  12:00 18:00 70°F   29.99 inHg Light breeze from southwest 4 mph
  18:00 00:00 57°F   29.95 inHg Light air from east 1 mph
      Temperature Precip Pressure Wind  
Thursday
11/14/2019
00:00 06:00 48°F   29.98 inHg Light breeze from east 4 mph
  06:00 12:00 45°F   30.01 inHg Light air from east 2 mph
  10:00 16:00 59°F   30.06 inHg Light breeze from southwest 4 mph
  16:00 22:00 55°F   30.06 inHg Light breeze from west-southwest 4 mph
  22:00 04:00 46°F   30.14 inHg Light air from east 1 mph
      Temperature Precip Pressure Wind  
Friday
11/15/2019
04:00 10:00 41°F   30.13 inHg Light air from east 3 mph
  10:00 16:00 61°F   30.17 inHg Light air from west-southwest 3 mph
  16:00 22:00 57°F   30.14 inHg Light air from west 3 mph
  22:00 04:00 43°F   30.14 inHg Light breeze from east-northeast 4 mph
      Temperature Precip Pressure Wind  
Saturday
11/16/2019
04:00 10:00 39°F   30.09 inHg Light breeze from east-northeast 7 mph
  10:00 16:00 68°F   30.09 inHg Light air from east-northeast 2 mph
  16:00 22:00 63°F   30.06 inHg Light air from west 2 mph
  22:00 04:00 50°F   30.10 inHg Light breeze from east-northeast 7 mph
      Temperature Precip Pressure Wind  
Sunday
11/17/2019
04:00 10:00 43°F   30.12 inHg Light breeze from east-northeast 6 mph
  10:00 16:00 68°F   30.14 inHg Light air from southwest 1 mph
  16:00 22:00 64°F   30.10 inHg Light air from west-northwest 2 mph
  22:00 04:00 48°F   30.09 inHg Light breeze from east-northeast 7 mph
      Temperature Precip Pressure Wind  
Monday
11/18/2019
04:00 10:00 43°F   30.05 inHg Light breeze from east-northeast 6 mph
  10:00 16:00 70°F   30.05 inHg Light air from southwest 2 mph
  16:00 22:00 64°F   29.94 inHg Light air from west-southwest 2 mph
  22:00 04:00 46°F   29.91 inHg Light breeze from east 6 mph
      Temperature Precip Pressure Wind  
Tuesday
11/19/2019
04:00 10:00 45°F   29.87 inHg Light breeze from east 5 mph
  10:00 16:00 61°F   29.85 inHg Light breeze from south-southwest 6 mph
  16:00 22:00 52°F 0.02 in 29.80 inHg Gentle breeze from south 10 mph
  22:00 04:00 46°F   29.87 inHg Light air from northeast 2 mph
      Temperature Precip Pressure Wind  
Wednesday
11/20/2019
04:00 10:00 39°F   29.79 inHg Light air from east 2 mph
  10:00 16:00 50°F 0.03 in 29.75 inHg Light breeze from south 6 mph
  16:00 22:00 45°F 0.13 in 29.71 inHg Calm from south-southeast 0 mph
  22:00 04:00 43°F   29.73 inHg Light breeze from east-northeast 4 mph
      Temperature Precip Pressure Wind  
Thursday
11/21/2019
04:00 10:00 39°F   29.71 inHg Light breeze from east-northeast 5 mph
How Close Are We To this Month's Temperature Record ?
Updated Tuesday, Nov 12, 2019- 4:40:01 PM

Current Temperature: 65.8°F

November's High: Temperature Record 78.4°F - Set on Fri, Nov 8, 2019 - 12:04:54 PM
We are currently 12.6°F Less than this Month's record High

November's Low: Temperature Record 28.9°F - Set on Thu, Nov 26, 2015 - 6:22:00 AM
We are currently 36.9°F More than this Month's record Low

Weather History For Tuesday, November 12, 2019


On this Day - In Weather History ...
Data courtesy of weatherforyou.com
powered by Cumulus v1.9.3 (1059)
Ambient Weather VWS v14.00
Top Website Map Copyright © 2007 - 2019 Foresthillweather.com Never base important decisions on this or any weather information obtained from the Internet